QPF
0.00 0.00 0.00 0.00 0.00 0.00 0.00 0.00 0.00 0.00 0.00 0.00 0.00 0.00 0.00 0.00 0.00 0.00 0.00 0.00 0.00 0.00 0.00 0.00 0.00 0.00 0.00 0.00 0.01 0.01 0.01 0.01 0.00 0.00 0.00 0.00 0.00 0.00 0.00 0.00 0.00 0.00 0.00 0.00 0.00 0.00 0.01 0.01 0.01
0.00 0.00 0.00 0.00 0.00 0.00 0.00 0.00 0.00 0.00 0.00 0.00 0.00 0.00 0.00 0.00 0.00 0.00 0.00 0.00 0.00 0.00 0.00 0.00 0.00 0.00 0.00 0.01 0.01 0.01 0.01 0.00 0.00 0.00 0.00 0.00 0.00 0.00 0.00 0.00 0.00 0.00 0.00 0.00 0.00 0.00 0.01 0.01 0.00
0.00 0.00 0.00 0.00 0.00 0.00 0.00 0.00 0.00 0.00 0.00 0.00 0.00 0.00 0.00 0.00 0.00 0.00 0.00 0.00 0.00 0.00 0.00 0.00 0.00 0.00 0.00 0.01 0.01 0.00 0.00 0.00 0.00 0.00 0.00 0.00 0.00 0.00 0.00 0.00 0.00 0.00 0.00 0.00 0.00 0.00 0.00 0.00 0.00
0.00 0.00 0.00 0.00 0.00 0.00 0.00 0.00 0.00 0.00 0.00 0.00 0.00 0.00 0.00 0.00 0.00 0.00 0.00 0.00 0.00 0.00 0.00 0.00 0.00 0.00 0.00 0.01 0.00 0.00 0.00 0.00 0.00 0.00 0.00 0.00 0.00 0.00 0.00 0.00 0.00 0.00 0.00 0.00 0.00 0.00 0.00 0.00 0.00
0.00 0.00 0.00 0.00 0.00 0.00 0.00 0.00 0.00 0.00 0.00 0.00 0.00 0.00 0.00 0.00 0.00 0.00 0.00 0.00 0.00 0.00 0.00 0.00 0.00 0.00 0.00 0.00 0.00 0.00 0.00 0.00 0.00 0.00 0.00 0.00 0.00 0.00 0.00 0.00 0.00 0.00 0.00 0.00 0.00 0.00 0.00 0.00 0.00
0.00 0.00 0.00 0.00 0.00 0.00 0.00 0.00 0.00 0.00 0.00 0.00 0.00 0.00 0.00 0.00 0.00 0.00 0.00 0.00 0.00 0.00 0.00 0.00 0.00 0.00 0.01 0.00 0.00 0.00 0.00 0.00 0.00 0.00 0.00 0.00 0.00 0.00 0.00 0.00 0.00 0.00 0.00 0.00 0.00 0.00 0.00 0.00 0.00
0.00 0.00 0.00 0.00 0.00 0.00 0.00 0.00 0.00 0.00 0.00 0.00 0.00 0.00 0.00 0.00 0.00 0.00 0.00 0.00 0.00 0.00 0.00 0.00 0.00 0.00 0.00 0.00 0.00 0.00 0.00 0.00 0.00 0.00 0.00 0.00 0.00 0.00 0.00 0.00 0.00 0.00 0.00 0.00 0.00 0.00 0.00 0.00 0.00
0.00 0.00 0.00 0.00 0.00 0.00 0.00 0.00 0.00 0.00 0.00 0.00 0.00 0.00 0.00 0.00 0.00 0.00 0.00 0.00 0.00 0.00 0.00 0.00 0.00 0.00 0.00 0.00 0.00 0.00 0.00 0.00 0.00 0.00 0.00 0.00 0.00 0.00 0.00 0.00 0.00 0.00 0.00 0.00 0.00 0.00 0.00 0.00 0.00
0.00 0.00 0.00 0.00 0.00 0.00 0.00 0.00 0.00 0.00 0.00 0.00 0.00 0.00 0.00 0.00 0.00 0.00 0.00 0.00 0.00 0.00 0.00 0.00 0.00 0.00 0.00 0.00 0.00 0.00 0.00 0.00 0.00 0.00 0.00 0.00 0.00 0.00 0.00 0.00 0.00 0.00 0.00 0.00 0.00 0.00 0.00 0.00 0.00
0.00 0.00 0.00 0.00 0.00 0.00 0.00 0.00 0.00 0.00 0.00 0.00 0.00 0.00 0.00 0.00 0.00 0.00 0.00 0.00 0.00 0.00 0.00 0.00 0.00 0.00 0.00 0.00 0.00 0.00 0.00 0.00 0.00 0.00 0.00 0.00 0.00 0.00 0.00 0.00 0.00 0.00 0.00 0.00 0.00 0.00 0.00 0.00 0.00
0.00 0.00 0.00 0.00 0.00 0.00 0.00 0.00 0.00 0.00 0.00 0.00 0.00 0.00 0.00 0.00 0.00 0.00 0.00 0.00 0.00 0.00 0.00 0.00 0.00 0.00 0.00 0.00 0.00 0.00 0.00 0.00 0.00 0.00 0.00 0.00 0.00 0.00 0.00 0.00 0.00 0.00 0.00 0.00 0.00 0.00 0.00 0.00 0.00
0.00 0.00 0.00 0.00 0.00 0.00 0.00 0.00 0.00 0.00 0.00 0.00 0.00 0.00 0.00 0.00 0.00 0.00 0.00 0.00 0.00 0.00 0.00 0.00 0.00 0.00 0.00 0.00 0.00 0.00 0.00 0.00 0.00 0.00 0.00 0.00 0.00 0.00 0.00 0.00 0.00 0.00 0.00 0.00 0.00 0.00 0.00 0.00 0.00
0.00 0.00 0.00 0.00 0.00 0.00 0.00 0.00 0.00 0.00 0.00 0.00 0.00 0.00 0.00 0.00 0.00 0.00 0.00 0.00 0.00 0.00 0.00 0.00 0.00 0.00 0.00 0.00 0.00 0.00 0.00 0.00 0.00 0.00 0.00 0.00 0.00 0.00 0.00 0.00 0.00 0.00 0.00 0.00 0.00 0.00 0.00 0.00 0.00
0.00 0.00 0.00 0.00 0.00 0.00 0.00 0.00 0.00 0.00 0.00 0.00 0.00 0.00 0.00 0.00 0.00 0.00 0.00 0.00 0.00 0.00 0.00 0.00 0.00 0.00 0.00 0.00 0.00 0.00 0.00 0.00 0.00 0.00 0.00 0.00 0.00 0.00 0.00 0.00 0.00 0.00 0.00 0.00 0.00 0.00 0.00 0.00 0.00
0.00 0.00 0.00 0.00 0.00 0.00 0.00 0.00 0.00 0.00 0.00 0.00 0.00 0.00 0.00 0.00 0.00 0.00 0.00 0.00 0.00 0.00 0.00 0.00 0.00 0.00 0.00 0.00 0.00 0.00 0.00 0.00 0.00 0.00 0.00 0.00 0.00 0.00 0.00 0.00 0.00 0.00 0.00 0.00 0.00 0.00 0.00 0.00 0.00
0.00 0.00 0.00 0.00 0.00 0.00 0.00 0.00 0.00 0.00 0.00 0.00 0.00 0.00 0.00 0.00 0.00 0.00 0.00 0.00 0.00 0.00 0.00 0.00 0.00 0.00 0.00 0.00 0.00 0.00 0.00 0.00 0.00 0.00 0.00 0.00 0.00 0.00 0.00 0.00 0.00 0.00 0.00 0.00 0.00 0.00 0.00 0.00 0.00
0.00 0.00 0.00 0.00 0.00 0.00 0.00 0.00 0.00 0.00 0.00 0.00 0.00 0.00 0.00 0.00 0.00 0.00 0.00 0.00 0.00 0.00 0.00 0.00 0.00 0.00 0.00 0.00 0.00 0.00 0.00 0.00 0.00 0.00 0.00 0.00 0.00 0.00 0.00 0.00 0.00 0.00 0.00 0.00 0.00 0.00 0.00 0.00 0.00
0.00 0.00 0.00 0.00 0.00 0.00 0.00 0.00 0.00 0.00 0.00 0.00 0.00 0.00 0.00 0.00 0.00 0.00 0.00 0.00 0.00 0.00 0.00 0.00 0.00 0.00 0.00 0.00 0.00 0.00 0.00 0.00 0.00 0.00 0.00 0.00 0.00 0.00 0.00 0.00 0.00 0.00 0.00 0.00 0.00 0.00 0.00 0.00 0.00
0.00 0.00 0.00 0.00 0.00 0.00 0.00 0.00 0.00 0.00 0.00 0.00 0.00 0.00 0.00 0.00 0.00 0.00 0.00 0.00 0.00 0.00 0.00 0.00 0.00 0.00 0.00 0.00 0.00 0.00 0.00 0.00 0.00 0.00 0.00 0.00 0.00 0.00 0.00 0.00 0.00 0.00 0.00 0.00 0.00 0.00 0.00 0.00 0.00
0.00 0.00 0.00 0.00 0.00 0.00 0.00 0.00 0.00 0.00 0.00 0.00 0.00 0.00 0.00 0.00 0.00 0.00 0.00 0.00 0.00 0.00 0.00 0.00 0.00 0.00 0.00 0.00 0.00 0.00 0.00 0.00 0.00 0.00 0.00 0.00 0.00 0.00 0.00 0.00 0.00 0.00 0.00 0.00 0.00 0.00 0.00 0.00 0.00
0.00 0.00 0.00 0.00 0.00 0.00 0.00 0.00 0.00 0.00 0.00 0.00 0.00 0.00 0.00 0.00 0.00 0.00 0.00 0.00 0.00 0.00 0.00 0.00 0.00 0.00 0.00 0.00 0.00 0.00 0.00 0.00 0.00 0.00 0.00 0.00 0.00 0.00 0.00 0.00 0.00 0.00 0.00 0.00 0.00 0.00 0.00 0.00 0.00
0.00 0.00 0.00 0.00 0.00 0.00 0.00 0.00 0.00 0.00 0.00 0.00 0.00 0.00 0.00 0.00 0.00 0.00 0.00 0.00 0.00 0.00 0.00 0.00 0.00 0.00 0.00 0.00 0.00 0.00 0.00 0.00 0.00 0.00 0.00 0.00 0.00 0.00 0.00 0.00 0.00 0.00 0.00 0.00 0.00 0.00 0.00 0.00 0.00
0.00 0.00 0.00 0.00 0.00 0.00 0.00 0.00 0.00 0.00 0.00 0.00 0.00 0.00 0.00 0.00 0.00 0.00 0.00 0.00 0.00 0.00 0.00 0.00 0.00 0.00 0.00 0.00 0.00 0.00 0.00 0.00 0.00 0.00 0.00 0.00 0.00 0.00 0.00 0.00 0.00 0.00 0.00 0.00 0.00 0.00 0.00 0.00 0.00
0.00 0.00 0.00 0.00 0.00 0.00 0.00 0.00 0.00 0.00 0.00 0.00 0.00 0.00 0.00 0.00 0.00 0.00 0.00 0.00 0.00 0.00 0.00 0.00 0.00 0.00 0.00 0.00 0.00 0.00 0.00 0.00 0.00 0.00 0.00 0.00 0.00 0.00 0.00 0.00 0.00 0.00 0.00 0.00 0.00 0.00 0.00 0.00 0.00
0.00 0.00 0.00 0.00 0.00 0.00 0.00 0.00 0.00 0.00 0.00 0.00 0.00 0.00 0.00 0.00 0.00 0.00 0.00 0.00 0.00 0.00 0.00 0.00 0.00 0.00 0.00 0.00 0.00 0.00 0.00 0.00 0.00 0.00 0.00 0.00 0.00 0.00 0.00 0.00 0.00 0.00 0.00 0.00 0.00 0.00 0.00 0.00 0.00
0.00 0.00 0.00 0.00 0.00 0.00 0.00 0.00 0.00 0.00 0.00 0.00 0.00 0.00 0.00 0.00 0.00 0.00 0.00 0.00 0.00 0.00 0.00 0.00 0.00 0.00 0.00 0.00 0.00 0.00 0.00 0.00 0.00 0.00 0.00 0.00 0.00 0.00 0.00 0.00 0.00 0.00 0.00 0.00 0.00 0.00 0.00 0.00 0.00
0.00 0.00 0.00 0.00 0.00 0.00 0.00 0.00 0.00 0.00 0.00 0.00 0.00 0.00 0.00 0.00 0.00 0.00 0.00 0.00 0.00 0.00 0.00 0.00 0.00 0.00 0.00 0.00 0.00 0.00 0.00 0.00 0.00 0.00 0.00 0.00 0.00 0.00 0.00 0.00 0.00 0.00 0.00 0.00 0.00 0.00 0.00 0.00 0.00
0.00 0.00 0.00 0.00 0.00 0.00 0.00 0.00 0.00 0.00 0.00 0.00 0.00 0.00 0.00 0.00 0.00 0.00 0.00 0.00 0.00 0.00 0.00 0.00 0.00 0.00 0.00 0.00 0.00 0.00 0.00 0.00 0.00 0.00 0.00 0.00 0.00 0.00 0.00 0.00 0.00 0.00 0.00 0.00 0.00 0.00 0.00 0.00 0.00
0.00 0.00 0.00 0.00 0.00 0.00 0.00 0.00 0.00 0.00 0.00 0.00 0.00 0.00 0.00 0.00 0.00 0.00 0.00 0.00 0.00 0.00 0.00 0.00 0.00 0.00 0.00 0.00 0.00 0.00 0.00 0.00 0.00 0.00 0.00 0.00 0.00 0.00 0.00 0.00 0.00 0.00 0.00 0.00 0.00 0.00 0.00 0.00 0.00
0.00 0.00 0.00 0.00 0.00 0.00 0.00 0.00 0.00 0.00 0.00 0.00 0.00 0.00 0.00 0.00 0.00 0.00 0.00 0.00 0.00 0.00 0.00 0.00 0.00 0.00 0.00 0.00 0.00 0.00 0.00 0.00 0.00 0.00 0.00 0.00 0.00 0.00 0.00 0.00 0.00 0.00 0.00 0.00 0.00 0.00 0.00 0.00 0.00
MSLP
1012.12 1012.31 1012.51 1012.86 1014.11 1014.31 1013.84 1013.30 1012.84 1012.37 1012.60 1012.75 1012.65 1013.15 1014.41 1015.78 1016.66 1018.26 1018.19 1018.46 1018.59 1019.00 1019.11 1019.38 1019.67 1019.75 1019.98 1020.04 1019.92 1019.93 1019.93 1019.83 1019.81 1019.78 1019.71 1019.57 1019.46 1019.43 1019.20 1018.98 1018.82 1018.72 1018.69 1018.59 1018.40 1018.18 1017.85 1017.68 1017.60
1012.14 1012.28 1012.90 1013.60 1014.31 1014.56 1013.86 1013.17 1012.87 1012.71 1013.02 1013.10 1013.49 1014.58 1015.40 1016.70 1017.14 1018.10 1018.56 1018.75 1018.60 1018.82 1019.29 1019.57 1019.73 1020.05 1020.09 1020.12 1020.19 1020.24 1020.22 1020.16 1020.23 1020.05 1019.94 1019.85 1019.79 1019.67 1019.61 1019.48 1019.35 1019.14 1019.08 1019.03 1018.88 1018.71 1018.29 1018.06 1017.91
1012.29 1012.45 1013.42 1014.09 1014.53 1014.24 1013.58 1013.01 1012.86 1012.82 1013.17 1013.20 1014.41 1015.44 1016.29 1017.15 1017.63 1017.94 1018.01 1018.50 1018.73 1019.01 1019.39 1019.84 1019.94 1020.22 1020.32 1020.42 1020.48 1020.47 1020.47 1020.53 1020.48 1020.48 1020.35 1020.29 1020.17 1020.09 1020.07 1019.98 1019.83 1019.60 1019.46 1019.43 1019.28 1019.08 1018.76 1018.43 1018.21
1012.46 1013.08 1014.06 1014.06 1014.18 1013.23 1012.88 1012.71 1012.74 1012.94 1013.04 1013.51 1014.66 1016.29 1016.94 1017.16 1017.50 1017.70 1018.24 1018.53 1018.96 1019.31 1019.72 1020.10 1020.07 1020.35 1020.54 1020.66 1020.67 1020.80 1020.64 1020.76 1020.92 1020.91 1020.81 1020.69 1020.60 1020.53 1020.48 1020.40 1020.29 1020.06 1019.85 1019.74 1019.64 1019.44 1019.16 1018.84 1018.59
1012.93 1013.62 1014.38 1014.38 1013.73 1012.93 1012.61 1012.49 1012.73 1012.87 1013.24 1014.02 1014.66 1016.66 1017.35 1017.40 1017.54 1018.04 1018.54 1018.73 1019.00 1019.48 1019.92 1020.24 1020.35 1020.50 1020.84 1020.89 1020.99 1021.15 1021.17 1021.29 1021.46 1021.38 1021.25 1021.18 1021.08 1021.03 1020.93 1020.79 1020.66 1020.48 1020.29 1020.07 1019.90 1019.73 1019.44 1019.26 1019.22
1013.57 1014.10 1014.76 1014.49 1013.48 1012.82 1012.48 1012.33 1012.61 1013.02 1013.60 1014.39 1015.43 1016.74 1017.70 1017.82 1017.94 1018.50 1018.82 1019.10 1019.06 1019.50 1019.99 1020.32 1020.55 1020.86 1021.09 1021.27 1021.44 1021.66 1021.74 1021.89 1021.90 1021.83 1021.76 1021.64 1021.63 1021.50 1021.34 1021.15 1020.99 1020.81 1020.66 1020.41 1020.21 1020.06 1019.90 1019.87 1019.81
1013.66 1014.42 1014.51 1014.01 1013.31 1012.87 1012.42 1012.28 1012.75 1013.25 1013.86 1014.63 1015.36 1017.13 1018.00 1018.28 1018.45 1018.62 1019.07 1019.29 1019.56 1019.75 1020.17 1020.46 1020.86 1021.15 1021.41 1021.66 1022.00 1022.16 1022.26 1022.29 1022.26 1022.25 1022.32 1022.31 1022.21 1022.00 1021.71 1021.52 1021.29 1021.09 1020.98 1020.86 1020.66 1020.52 1020.44 1020.53 1020.50
1013.59 1014.27 1014.33 1013.71 1013.29 1012.80 1012.50 1012.57 1012.96 1013.34 1014.18 1014.83 1015.54 1016.91 1017.95 1017.86 1018.50 1018.93 1019.38 1019.73 1020.08 1020.34 1020.55 1020.92 1021.30 1021.59 1021.92 1022.32 1022.44 1022.55 1022.63 1022.63 1022.61 1022.73 1022.83 1022.89 1022.76 1022.57 1022.28 1022.01 1021.65 1021.45 1021.30 1021.22 1021.25 1021.16 1021.16 1021.16 1021.22
1013.29 1014.33 1014.49 1013.71 1013.24 1012.80 1012.63 1012.76 1013.10 1013.49 1014.34 1015.43 1016.06 1016.38 1016.39 1017.29 1018.47 1019.24 1019.85 1020.44 1020.76 1021.02 1021.10 1021.35 1021.84 1022.17 1022.47 1022.74 1022.75 1022.87 1022.91 1022.94 1023.03 1023.14 1023.27 1023.49 1023.50 1023.26 1022.95 1022.49 1022.19 1021.90 1021.79 1021.76 1021.86 1022.01 1022.14 1022.09 1021.96
1013.49 1014.24 1013.82 1013.45 1013.28 1012.97 1012.93 1013.01 1013.28 1013.89 1014.88 1015.92 1016.40 1016.48 1016.57 1017.64 1018.62 1019.29 1019.96 1020.61 1021.07 1021.42 1021.66 1021.74 1022.15 1022.46 1022.64 1022.85 1023.22 1023.42 1023.43 1023.58 1023.64 1023.65 1023.75 1023.86 1023.83 1023.61 1023.47 1023.15 1022.83 1022.67 1022.49 1022.46 1022.53 1022.67 1022.80 1022.98 1023.14
1013.27 1013.58 1013.36 1013.34 1013.29 1013.22 1013.21 1013.35 1013.53 1014.13 1015.04 1015.49 1016.15 1016.89 1017.22 1017.91 1018.75 1019.39 1020.08 1020.34 1020.76 1021.24 1021.72 1022.03 1022.28 1022.58 1022.84 1023.17 1023.55 1023.79 1023.88 1023.92 1023.96 1023.93 1023.99 1024.10 1024.23 1024.21 1024.15 1024.06 1023.97 1023.87 1023.71 1023.74 1023.64 1023.67 1023.76 1023.84 1023.92
1012.99 1013.18 1013.18 1013.37 1013.46 1013.41 1013.54 1013.72 1013.87 1014.26 1014.51 1014.65 1015.49 1016.28 1017.09 1017.92 1018.55 1019.16 1019.83 1020.41 1020.88 1021.40 1021.76 1022.12 1022.33 1022.70 1023.00 1023.33 1023.73 1023.97 1024.10 1024.23 1024.30 1024.24 1024.28 1024.50 1024.70 1024.69 1024.66 1024.59 1024.52 1024.51 1024.49 1024.47 1024.47 1024.47 1024.47 1024.52 1024.57
1012.90 1013.09 1013.24 1013.50 1013.71 1013.65 1013.86 1014.11 1014.38 1014.44 1014.87 1015.23 1016.11 1016.88 1017.38 1017.99 1018.63 1019.20 1019.60 1020.21 1020.70 1021.27 1021.85 1022.25 1022.51 1022.79 1023.13 1023.56 1023.99 1024.20 1024.37 1024.49 1024.53 1024.53 1024.61 1024.74 1024.94 1025.04 1024.96 1024.97 1024.97 1025.04 1024.98 1025.01 1025.13 1025.13 1025.18 1025.25 1025.24
1012.98 1013.14 1013.41 1013.70 1013.95 1013.93 1014.34 1014.51 1014.72 1014.70 1015.37 1016.19 1016.59 1017.14 1017.53 1017.94 1018.43 1019.15 1019.64 1020.14 1020.59 1021.11 1021.68 1022.18 1022.60 1022.78 1023.12 1023.70 1024.09 1024.41 1024.55 1024.69 1024.77 1024.87 1024.91 1024.92 1025.06 1025.19 1025.24 1025.27 1025.37 1025.46 1025.47 1025.53 1025.58 1025.67 1025.81 1026.00 1025.97
1013.19 1013.53 1013.66 1013.83 1014.05 1014.33 1014.63 1014.92 1014.72 1014.93 1015.80 1016.45 1017.07 1017.39 1017.77 1018.05 1018.42 1018.69 1019.13 1019.79 1020.26 1020.89 1021.45 1021.97 1022.34 1022.76 1023.15 1023.64 1024.13 1024.45 1024.65 1024.87 1025.05 1025.11 1025.05 1025.09 1025.16 1025.28 1025.37 1025.50 1025.68 1025.81 1025.79 1025.88 1025.99 1026.15 1026.22 1026.36 1026.46
1013.66 1013.89 1014.08 1014.09 1014.27 1014.71 1015.11 1014.74 1014.27 1014.96 1015.90 1016.75 1017.09 1017.54 1017.80 1018.04 1018.15 1018.61 1019.04 1019.56 1020.13 1020.73 1021.35 1021.81 1022.01 1022.81 1023.27 1023.73 1024.13 1024.44 1024.80 1025.05 1025.28 1025.34 1025.31 1025.31 1025.32 1025.35 1025.51 1025.69 1025.91 1025.97 1026.08 1026.26 1026.48 1026.69 1026.97 1027.17 1027.28
1014.45 1014.46 1014.46 1014.34 1014.53 1015.00 1015.48 1015.05 1014.72 1015.21 1016.00 1016.72 1016.97 1017.25 1017.60 1017.98 1018.29 1018.47 1018.82 1019.36 1020.01 1020.51 1021.22 1021.78 1022.21 1022.80 1023.33 1023.81 1024.17 1024.54 1024.93 1025.22 1025.45 1025.55 1025.57 1025.50 1025.48 1025.52 1025.65 1025.93 1026.13 1026.13 1026.38 1026.63 1026.70 1027.25 1027.32 1027.70 1027.86
1014.50 1014.57 1014.45 1014.50 1014.86 1015.30 1015.70 1015.28 1015.19 1015.56 1016.06 1016.31 1016.68 1017.05 1017.44 1017.70 1017.66 1018.10 1018.63 1019.25 1019.87 1020.53 1021.06 1021.62 1022.27 1022.82 1023.32 1023.92 1024.43 1024.91 1025.24 1025.52 1025.60 1025.69 1025.70 1025.64 1025.69 1025.73 1025.87 1026.12 1026.32 1026.43 1026.73 1027.06 1027.21 1027.47 1027.87 1028.05 1028.14
1014.07 1014.32 1014.63 1014.59 1015.04 1015.68 1015.79 1015.57 1015.29 1015.28 1015.72 1015.96 1016.40 1016.81 1017.08 1017.29 1017.49 1017.93 1018.53 1019.19 1019.91 1020.59 1021.16 1021.68 1022.29 1022.88 1023.44 1024.14 1024.67 1025.18 1025.54 1025.74 1025.86 1025.76 1025.70 1025.75 1025.86 1025.94 1026.14 1026.40 1026.62 1026.76 1027.02 1027.30 1027.42 1027.81 1028.14 1028.58 1028.51
1014.28 1014.59 1014.89 1015.27 1015.53 1016.21 1016.20 1015.84 1014.58 1014.66 1014.48 1014.64 1015.35 1016.29 1016.65 1017.28 1017.68 1018.21 1018.72 1019.33 1019.86 1020.53 1021.12 1021.69 1022.13 1022.74 1023.29 1023.76 1024.26 1024.74 1025.31 1025.83 1025.87 1025.92 1025.95 1025.93 1026.01 1026.15 1026.32 1026.57 1026.90 1027.03 1027.31 1027.54 1027.66 1027.83 1028.45 1028.87 1028.71
1014.84 1015.22 1015.58 1016.04 1016.44 1016.88 1017.15 1016.09 1014.91 1014.19 1014.23 1014.35 1014.78 1015.35 1016.27 1016.89 1017.64 1018.32 1018.86 1019.41 1019.96 1020.57 1021.05 1021.59 1022.05 1022.58 1023.11 1023.56 1024.21 1024.94 1025.47 1025.94 1026.27 1026.34 1026.39 1026.30 1026.26 1026.39 1026.55 1026.79 1027.05 1027.30 1027.48 1027.73 1027.90 1027.98 1028.19 1028.74 1029.05
1015.65 1015.88 1016.34 1016.96 1017.92 1018.82 1018.49 1017.94 1016.01 1015.23 1015.14 1015.43 1015.60 1015.93 1016.43 1017.08 1017.85 1018.45 1018.93 1019.67 1020.16 1020.69 1021.12 1021.51 1022.00 1022.51 1023.06 1023.45 1024.05 1024.67 1025.27 1025.81 1026.07 1026.32 1026.51 1026.60 1026.56 1026.71 1026.82 1027.01 1027.23 1027.46 1027.66 1027.85 1027.90 1027.95 1028.12 1028.33 1028.86
1016.43 1016.80 1017.53 1018.37 1019.65 1020.39 1019.94 1019.91 1016.65 1016.17 1016.32 1016.44 1016.61 1016.85 1017.13 1017.50 1017.84 1018.51 1018.98 1019.49 1020.11 1020.64 1021.18 1021.54 1022.05 1022.59 1023.06 1023.53 1023.94 1024.55 1025.28 1025.62 1025.94 1026.37 1026.66 1026.83 1026.92 1026.93 1027.02 1027.19 1027.42 1027.69 1027.94 1028.13 1028.15 1028.26 1028.32 1028.46 1028.91
1017.17 1018.08 1019.02 1020.26 1021.39 1021.94 1020.62 1020.32 1018.44 1018.01 1018.12 1017.77 1017.82 1018.00 1018.00 1018.07 1018.40 1018.80 1019.20 1019.64 1020.23 1020.74 1021.19 1021.61 1022.09 1022.57 1022.98 1023.48 1023.93 1024.37 1024.92 1025.47 1025.99 1026.42 1026.84 1027.07 1027.29 1027.34 1027.33 1027.41 1027.61 1027.79 1028.03 1028.25 1028.49 1028.65 1028.73 1028.95 1029.07
1018.33 1019.49 1021.14 1022.19 1022.93 1022.18 1021.14 1021.11 1018.89 1018.90 1018.86 1018.85 1018.93 1018.94 1018.86 1018.79 1018.89 1019.17 1019.61 1020.09 1020.60 1020.96 1021.30 1021.71 1022.09 1022.53 1022.83 1023.30 1023.79 1024.20 1024.63 1025.07 1025.49 1025.97 1026.40 1026.92 1027.25 1027.53 1027.66 1027.72 1027.88 1028.05 1028.21 1028.39 1028.58 1028.86 1029.14 1029.30 1029.45
1019.29 1019.95 1021.42 1022.22 1023.03 1022.31 1021.48 1020.60 1019.12 1019.41 1019.55 1019.60 1019.62 1019.56 1019.45 1019.43 1019.41 1019.52 1019.70 1020.02 1020.51 1020.96 1021.36 1021.76 1022.10 1022.43 1022.70 1023.00 1023.34 1023.74 1024.20 1024.75 1025.25 1025.65 1026.08 1026.48 1026.85 1027.15 1027.46 1027.78 1028.06 1028.17 1028.29 1028.60 1028.82 1029.02 1029.33 1029.63 1029.91
1020.21 1020.58 1020.97 1022.24 1023.45 1023.07 1021.10 1020.19 1019.84 1020.00 1020.27 1020.43 1020.46 1020.37 1020.42 1020.31 1020.12 1020.08 1020.17 1020.33 1020.66 1020.99 1021.23 1021.52 1021.94 1022.32 1022.60 1022.91 1023.24 1023.61 1023.96 1024.37 1024.84 1025.40 1025.82 1026.21 1026.56 1026.87 1027.26 1027.62 1028.04 1028.27 1028.39 1028.56 1028.89 1029.36 1029.53 1029.76 1030.10
1020.65 1021.20 1021.78 1022.72 1023.66 1023.45 1021.75 1020.99 1020.10 1020.70 1021.07 1021.36 1021.45 1021.35 1021.20 1020.97 1020.79 1020.72 1020.76 1020.75 1020.83 1021.02 1021.22 1021.52 1021.73 1021.96 1022.30 1022.73 1023.08 1023.45 1023.83 1024.25 1024.65 1025.23 1025.73 1026.11 1026.54 1026.84 1027.34 1027.42 1027.74 1028.13 1028.41 1028.73 1029.07 1029.45 1029.78 1029.97 1030.33
1021.93 1022.02 1022.51 1022.88 1023.52 1023.85 1023.60 1021.68 1020.84 1021.22 1021.70 1022.08 1022.21 1022.09 1021.99 1021.82 1021.62 1021.52 1021.30 1021.18 1021.06 1021.17 1021.42 1021.56 1021.80 1022.03 1022.41 1022.71 1023.03 1023.28 1023.61 1024.06 1024.46 1024.96 1025.58 1025.89 1026.37 1027.08 1027.42 1027.57 1027.86 1028.26 1028.58 1028.70 1029.29 1029.68 1030.01 1030.26 1030.52
1022.82 1022.99 1023.12 1023.94 1024.84 1025.26 1024.89 1022.64 1021.70 1022.21 1022.54 1022.87 1023.11 1023.10 1023.01 1022.94 1022.67 1022.23 1021.92 1021.70 1021.63 1021.63 1021.77 1021.91 1022.06 1022.18 1022.46 1022.78 1023.16 1023.47 1023.68 1023.96 1024.45 1024.84 1025.40 1025.79 1026.52 1026.75 1027.63 1028.09 1028.13 1028.33 1028.81 1029.04 1029.34 1029.77 1030.17 1030.47 1030.75
Thickness
5720 5719 5717 5709 5682 5673 5675 5689 5685 5698 5696 5698 5703 5699 5689 5680 5683 5673 5672 5671 5671 5668 5666 5664 5662 5662 5662 5662 5663 5664 5664 5666 5667 5667 5667 5667 5668 5669 5670 5672 5673 5673 5672 5673 5673 5674 5676 5675 5674
5719 5718 5709 5691 5669 5661 5669 5688 5690 5695 5694 5693 5696 5690 5683 5674 5678 5670 5668 5669 5670 5668 5664 5662 5661 5659 5659 5660 5660 5660 5661 5662 5662 5663 5664 5664 5665 5666 5667 5668 5668 5669 5669 5669 5670 5670 5673 5673 5673
5714 5714 5695 5676 5656 5663 5673 5691 5690 5697 5694 5702 5689 5682 5679 5673 5674 5672 5674 5670 5668 5666 5661 5658 5657 5655 5655 5655 5656 5656 5657 5657 5658 5658 5659 5660 5661 5662 5662 5663 5664 5665 5666 5665 5666 5667 5668 5670 5671
5707 5700 5687 5668 5670 5688 5687 5690 5692 5693 5699 5695 5685 5671 5674 5678 5674 5674 5671 5668 5665 5662 5657 5654 5654 5652 5651 5651 5652 5652 5653 5653 5652 5652 5654 5655 5656 5657 5657 5658 5659 5661 5662 5662 5663 5663 5665 5666 5667
5698 5685 5665 5662 5671 5689 5689 5689 5687 5694 5695 5691 5689 5666 5666 5674 5674 5670 5666 5664 5662 5659 5654 5651 5650 5649 5647 5647 5647 5647 5647 5646 5645 5646 5647 5649 5650 5650 5652 5653 5654 5656 5657 5658 5659 5660 5661 5662 5660
5681 5676 5654 5653 5665 5683 5688 5692 5690 5688 5687 5682 5673 5665 5662 5667 5669 5664 5662 5659 5659 5656 5651 5648 5647 5645 5643 5642 5641 5640 5640 5639 5639 5640 5641 5643 5644 5645 5646 5648 5649 5650 5651 5653 5655 5656 5657 5656 5655
5676 5661 5656 5661 5667 5672 5681 5688 5684 5679 5680 5679 5675 5658 5657 5661 5662 5660 5657 5654 5653 5651 5648 5645 5642 5640 5638 5636 5634 5633 5633 5633 5634 5635 5635 5636 5637 5639 5641 5642 5644 5646 5646 5647 5649 5650 5650 5649 5649
5673 5664 5665 5664 5660 5669 5679 5679 5676 5678 5675 5675 5671 5653 5650 5659 5657 5654 5651 5647 5645 5643 5642 5640 5637 5634 5632 5629 5627 5627 5627 5628 5628 5628 5628 5628 5629 5631 5633 5636 5638 5639 5640 5641 5641 5642 5642 5642 5642
5678 5650 5646 5663 5663 5668 5675 5672 5674 5676 5668 5662 5661 5660 5665 5660 5653 5648 5643 5638 5635 5634 5634 5632 5630 5628 5625 5623 5622 5621 5621 5621 5621 5621 5621 5621 5622 5624 5626 5628 5630 5632 5633 5634 5633 5633 5632 5633 5634
5661 5643 5656 5666 5665 5664 5668 5668 5666 5666 5659 5652 5654 5656 5660 5653 5648 5643 5639 5634 5628 5625 5625 5624 5623 5621 5619 5617 5616 5615 5615 5614 5614 5615 5615 5615 5615 5617 5618 5620 5622 5623 5624 5624 5624 5624 5624 5625 5624
5663 5650 5663 5663 5664 5663 5663 5662 5665 5656 5653 5652 5650 5648 5650 5645 5641 5638 5634 5632 5628 5623 5620 5617 5616 5615 5613 5612 5610 5608 5608 5608 5608 5608 5609 5608 5608 5609 5610 5612 5612 5613 5613 5614 5615 5615 5615 5615 5614
5662 5664 5665 5660 5659 5660 5657 5657 5657 5656 5659 5662 5655 5652 5648 5642 5638 5635 5630 5625 5621 5617 5614 5610 5610 5609 5607 5606 5603 5602 5602 5601 5601 5601 5601 5600 5600 5601 5601 5602 5603 5603 5603 5604 5604 5605 5604 5604 5604
5660 5660 5659 5656 5654 5655 5653 5650 5651 5654 5653 5649 5647 5643 5641 5638 5630 5627 5626 5622 5618 5613 5607 5605 5603 5603 5601 5598 5596 5595 5595 5594 5594 5594 5593 5593 5593 5593 5593 5594 5594 5593 5593 5594 5594 5595 5594 5594 5594
5659 5657 5655 5652 5651 5652 5646 5647 5649 5653 5643 5641 5642 5637 5635 5634 5629 5622 5619 5617 5615 5611 5605 5601 5598 5597 5595 5592 5590 5589 5588 5587 5587 5587 5586 5586 5586 5586 5586 5586 5585 5584 5584 5583 5584 5584 5584 5583 5583
5655 5651 5651 5648 5649 5647 5644 5641 5642 5649 5641 5638 5635 5634 5631 5629 5626 5626 5621 5615 5612 5607 5602 5597 5595 5594 5591 5588 5585 5584 5582 5581 5581 5580 5580 5580 5580 5579 5579 5578 5577 5576 5575 5575 5574 5574 5574 5574 5573
5647 5643 5636 5645 5643 5642 5641 5634 5655 5642 5638 5634 5632 5629 5628 5626 5627 5622 5617 5613 5608 5603 5598 5594 5592 5589 5586 5583 5581 5579 5577 5575 5574 5574 5574 5574 5573 5573 5573 5571 5570 5568 5567 5566 5565 5564 5563 5562 5562
5629 5628 5630 5640 5637 5637 5633 5635 5649 5639 5636 5633 5631 5628 5626 5622 5620 5619 5615 5610 5605 5601 5595 5590 5588 5584 5580 5577 5575 5573 5571 5570 5569 5568 5567 5567 5567 5567 5566 5564 5562 5561 5559 5557 5556 5553 5553 5550 5550
5625 5626 5631 5634 5634 5631 5628 5626 5636 5636 5633 5633 5629 5626 5622 5621 5623 5618 5613 5608 5602 5596 5592 5588 5583 5580 5576 5572 5569 5567 5565 5564 5563 5562 5561 5561 5560 5560 5559 5557 5555 5553 5551 5548 5546 5544 5542 5541 5541
5638 5634 5631 5634 5630 5627 5621 5623 5631 5636 5632 5630 5625 5620 5620 5620 5619 5615 5610 5604 5597 5591 5587 5583 5578 5574 5571 5566 5562 5558 5557 5555 5555 5555 5554 5554 5553 5552 5551 5549 5546 5545 5542 5539 5537 5535 5533 5530 5531
5631 5626 5622 5622 5624 5619 5621 5623 5634 5635 5640 5642 5636 5622 5619 5616 5611 5606 5601 5597 5593 5587 5582 5577 5575 5569 5566 5563 5559 5555 5551 5548 5547 5547 5546 5545 5544 5543 5542 5540 5537 5536 5533 5531 5529 5527 5522 5519 5520
5616 5613 5616 5613 5614 5612 5609 5617 5633 5641 5638 5636 5634 5627 5618 5613 5605 5599 5596 5590 5584 5580 5575 5572 5568 5564 5560 5557 5552 5546 5542 5539 5536 5535 5535 5535 5535 5534 5532 5530 5528 5526 5524 5521 5520 5519 5517 5512 5510
5613 5607 5609 5608 5585 5574 5593 5572 5618 5624 5625 5618 5613 5614 5608 5605 5599 5593 5588 5579 5577 5573 5568 5565 5561 5557 5554 5550 5546 5541 5537 5533 5530 5528 5527 5526 5525 5523 5522 5520 5519 5517 5515 5513 5512 5511 5510 5508 5504
5602 5600 5597 5590 5553 5558 5580 5534 5604 5616 5615 5615 5609 5603 5599 5592 5589 5584 5580 5578 5571 5565 5561 5558 5554 5549 5546 5542 5539 5534 5529 5526 5523 5520 5518 5516 5515 5513 5512 5510 5509 5507 5504 5502 5501 5500 5499 5499 5495
5591 5584 5565 5546 5536 5502 5533 5548 5581 5590 5584 5583 5584 5580 5584 5584 5580 5575 5571 5567 5561 5556 5553 5549 5546 5542 5539 5534 5530 5527 5523 5519 5514 5510 5507 5505 5504 5502 5501 5500 5499 5497 5495 5492 5490 5488 5487 5486 5485
5575 5559 5522 5522 5505 5535 5550 5534 5568 5568 5561 5567 5565 5565 5565 5566 5566 5563 5559 5554 5550 5546 5543 5540 5537 5533 5530 5526 5522 5519 5515 5512 5508 5505 5501 5497 5494 5491 5490 5488 5487 5485 5483 5481 5478 5476 5474 5473 5473
5568 5548 5517 5530 5543 5561 5552 5534 5557 5555 5547 5547 5550 5551 5552 5552 5553 5553 5550 5545 5541 5537 5532 5530 5526 5523 5521 5518 5516 5513 5509 5503 5498 5495 5492 5488 5485 5483 5480 5477 5474 5472 5471 5468 5466 5464 5462 5461 5459
5555 5540 5545 5497 5492 5489 5542 5551 5546 5539 5537 5533 5533 5535 5534 5535 5538 5541 5538 5534 5530 5526 5523 5520 5516 5513 5510 5507 5504 5502 5498 5494 5489 5484 5481 5477 5474 5471 5469 5466 5463 5460 5458 5456 5453 5449 5448 5448 5446
5531 5530 5530 5491 5506 5509 5533 5545 5531 5528 5526 5521 5518 5516 5518 5519 5519 5522 5520 5519 5517 5515 5512 5508 5505 5503 5499 5496 5492 5489 5486 5482 5479 5473 5468 5464 5461 5458 5454 5454 5452 5448 5445 5442 5439 5436 5434 5433 5432
5511 5502 5508 5510 5502 5497 5484 5521 5505 5518 5509 5501 5503 5502 5501 5502 5499 5498 5500 5500 5501 5500 5497 5495 5491 5488 5484 5481 5478 5475 5472 5468 5465 5461 5455 5451 5448 5442 5440 5439 5437 5433 5431 5430 5425 5422 5420 5419 5417
5491 5499 5495 5501 5490 5447 5450 5488 5503 5480 5471 5461 5471 5474 5475 5473 5473 5480 5481 5482 5481 5480 5478 5476 5474 5472 5469 5465 5461 5458 5456 5454 5450 5447 5443 5439 5434 5432 5424 5421 5421 5419 5415 5414 5411 5408 5405 5404 5403